• în România
  • Lista ţărilor
  • Pe 7 zile
  • Temperatura apei
  • Hartă satelitară
  • Meteo pe hartă
  • Widget-uri
  • user-avatar
    Intrare

    Meteo pe oră la Newport

    Astăzi, 24 Februarie, Sâmbătă

    Timp Temperatura Precipitaţii Vânt Presiune Umiditate
    00:00 -4°C° 0 mm 7 m/s 762 mmHg 83%
    01:00 -4°C° 0 mm 7 m/s 762 mmHg 83%
    02:00 -4°C° 0 mm 7 m/s 762 mmHg 84%
    03:00 -4°C° 0 mm 7 m/s 761 mmHg 84%
    04:00 -4°C° 0 mm 7 m/s 762 mmHg 83%
    05:00 -4°C° 0 mm 7 m/s 762 mmHg 83%
    06:00 -5°C° 0 mm 6 m/s 762 mmHg 86%
    07:00 -4°C° 0 mm 6 m/s 763 mmHg 81%
    08:00 -4°C° 0 mm 6 m/s 763 mmHg 76%
    09:00 -3°C° 0 mm 7 m/s 763 mmHg 71%
    10:00 -1°C° 0 mm 7 m/s 763 mmHg 65%
    11:00 0°C° 0 mm 7 m/s 764 mmHg 60%
    12:00 +3°C° 0 mm 7 m/s 764 mmHg 54%
    13:00 +3°C° 0 mm 7 m/s 764 mmHg 54%
    14:00 +4°C° 0 mm 7 m/s 763 mmHg 54%
    15:00 +4°C° 0 mm 7 m/s 763 mmHg 54%
    16:00 +3°C° 0 mm 7 m/s 764 mmHg 56%
    17:00 +2°C° 0 mm 7 m/s 764 mmHg 59%
    18:00 -1°C° 0 mm 7 m/s 764 mmHg 61%
    19:00 -1°C° 0 mm 7 m/s 764 mmHg 61%
    20:00 -2°C° 0 mm 7 m/s 765 mmHg 60%
    21:00 -2°C° 0 mm 8 m/s 765 mmHg 60%
    22:00 -2°C° 0 mm 8 m/s 765 mmHg 62%
    23:00 -4°C° 0 mm 8 m/s 766 mmHg 64%

    Mâine, 25 Februarie, Duminică

    Timp Temperatura Precipitaţii Vânt Presiune Umiditate
    00:00 -4°C° 0 mm 8 m/s 766 mmHg 67%
    01:00 -4°C° 0 mm 8 m/s 766 mmHg 69%
    02:00 -4°C° 0 mm 8 m/s 766 mmHg 71%
    03:00 -4°C° 0 mm 8 m/s 766 mmHg 73%
    04:00 -4°C° 0 mm 8 m/s 767 mmHg 74%
    05:00 -4°C° 0 mm 8 m/s 767 mmHg 74%
    06:00 -4°C° 0 mm 8 m/s 767 mmHg 75%
    07:00 -4°C° 0 mm 9 m/s 767 mmHg 70%
    08:00 -3°C° 0 mm 9 m/s 768 mmHg 66%
    09:00 -3°C° 0 mm 9 m/s 768 mmHg 61%
    10:00 -1°C° 0 mm 9 m/s 768 mmHg 57%
    11:00 0°C° 0 mm 9 m/s 768 mmHg 53%
    12:00 +2°C° 0 mm 9 m/s 769 mmHg 48%
    13:00 +2°C° 0 mm 9 m/s 768 mmHg 49%
    14:00 +2°C° 0 mm 9 m/s 768 mmHg 49%
    15:00 +2°C° 0 mm 8 m/s 768 mmHg 50%
    16:00 +1°C° 0 mm 8 m/s 768 mmHg 52%
    17:00 0°C° 0 mm 8 m/s 769 mmHg 54%
    18:00 -1°C° 0 mm 8 m/s 769 mmHg 56%
    19:00 -2°C° 0 mm 8 m/s 769 mmHg 57%
    20:00 -4°C° 0 mm 8 m/s 770 mmHg 57%
    21:00 -4°C° 0 mm 9 m/s 770 mmHg 58%
    22:00 -5°C° 0 mm 9 m/s 770 mmHg 60%
    23:00 -5°C° 0 mm 9 m/s 771 mmHg 61%

    Poimâine, 26 Februarie, Luni

    Timp Temperatura Precipitaţii Vânt Presiune Umiditate
    00:00 -6°C° 0 mm 8 m/s 771 mmHg 63%
    01:00 -6°C° 0 mm 8 m/s 771 mmHg 66%
    02:00 -6°C° 0 mm 8 m/s 771 mmHg 68%
    03:00 -6°C° 0 mm 8 m/s 771 mmHg 71%
    04:00 -6°C° 0 mm 8 m/s 771 mmHg 72%
    05:00 -6°C° 0 mm 7 m/s 771 mmHg 73%
    06:00 -6°C° 0 mm 7 m/s 771 mmHg 74%
    07:00 -5°C° 0 mm 8 m/s 772 mmHg 68%
    08:00 -5°C° 0 mm 8 m/s 772 mmHg 62%
    09:00 -4°C° 0 mm 9 m/s 772 mmHg 56%
    10:00 -3°C° 0 mm 9 m/s 772 mmHg 51%
    11:00 -1°C° 0 mm 9 m/s 772 mmHg 47%
    12:00 0°C° 0 mm 9 m/s 772 mmHg 42%
    13:00 0°C° 0 mm 8 m/s 772 mmHg 43%
    14:00 0°C° 0 mm 8 m/s 772 mmHg 44%
    15:00 0°C° 0 mm 8 m/s 772 mmHg 44%
    16:00 -1°C° 0 mm 8 m/s 772 mmHg 48%
    17:00 -2°C° 0 mm 7 m/s 772 mmHg 52%
    18:00 -3°C° 0 mm 7 m/s 772 mmHg 56%
    19:00 -4°C° 0 mm 7 m/s 772 mmHg 60%
    20:00 -4°C° 0 mm 7 m/s 772 mmHg 63%
    21:00 -6°C° 0 mm 8 m/s 772 mmHg 66%
    22:00 -6°C° 0 mm 8 m/s 772 mmHg 68%
    23:00 -6°C° 0 mm 7 m/s 772 mmHg 71%

    27 Februarie, Marţi

    Timp Temperatura Precipitaţii Vânt Presiune Umiditate
    00:00 -6°C° 0 mm 7 m/s 772 mmHg 73%
    01:00 -6°C° 0 mm 7 m/s 771 mmHg 73%
    02:00 -6°C° 0 mm 6 m/s 771 mmHg 73%
    03:00 -6°C° 0 mm 6 m/s 771 mmHg 74%
    04:00 -6°C° 0 mm 6 m/s 770 mmHg 74%
    05:00 -6°C° 0 mm 6 m/s 770 mmHg 73%
    06:00 -5°C° 0 mm 6 m/s 769 mmHg 73%
    07:00 -5°C° 0 mm 6 m/s 769 mmHg 69%
    08:00 -4°C° 0 mm 6 m/s 769 mmHg 66%
    09:00 -3°C° 0 mm 6 m/s 768 mmHg 62%
    10:00 -2°C° 0 mm 6 m/s 768 mmHg 57%
    11:00 -2°C° 0 mm 6 m/s 768 mmHg 52%
    12:00 -1°C° 0 mm 7 m/s 767 mmHg 47%
    13:00 -1°C° 0 mm 6 m/s 767 mmHg 47%
    14:00 -1°C° 0 mm 6 m/s 766 mmHg 46%
    15:00 -1°C° 0 mm 6 m/s 766 mmHg 46%
    16:00 -2°C° 0 mm 6 m/s 765 mmHg 50%
    17:00 -3°C° 0 mm 6 m/s 765 mmHg 54%
    18:00 -4°C° 0 mm 6 m/s 765 mmHg 58%
    19:00 -4°C° 0 mm 6 m/s 765 mmHg 62%
    20:00 -5°C° 0 mm 6 m/s 765 mmHg 67%
    21:00 -5°C° 0 mm 6 m/s 765 mmHg 71%
    22:00 -6°C° 0 mm 6 m/s 764 mmHg 74%
    23:00 -6°C° 0 mm 6 m/s 764 mmHg 77%

    28 Februarie, Miercuri

    Timp Temperatura Precipitaţii Vânt Presiune Umiditate
    00:00 -6°C° 0 mm 6 m/s 764 mmHg 80%
    01:00 -6°C° 0 mm 6 m/s 763 mmHg 79%
    02:00 -7°C° 0 mm 7 m/s 763 mmHg 79%
    03:00 -7°C° 0 mm 7 m/s 762 mmHg 79%
    04:00 -7°C° 0 mm 7 m/s 762 mmHg 77%
    05:00 -7°C° 0 mm 7 m/s 761 mmHg 75%
    06:00 -8°C° 0 mm 8 m/s 761 mmHg 73%
    07:00 -7°C° 0 mm 8 m/s 761 mmHg 72%
    08:00 -7°C° 0 mm 8 m/s 760 mmHg 70%
    09:00 -6°C° 0 mm 8 m/s 760 mmHg 68%
    10:00 -5°C° 0 mm 8 m/s 760 mmHg 61%
    11:00 -3°C° 0 mm 7 m/s 759 mmHg 54%
    12:00 -2°C° 0 mm 7 m/s 759 mmHg 47%
    13:00 -2°C° 0,1 mm 8 m/s 759 mmHg 44%
    14:00 -2°C° 0,1 mm 8 m/s 758 mmHg 41%
    15:00 -2°C° 0,1 mm 8 m/s 758 mmHg 38%
    16:00 -4°C° 0 mm 8 m/s 758 mmHg 41%
    17:00 -5°C° 0 mm 9 m/s 758 mmHg 45%
    18:00 -6°C° 0 mm 9 m/s 758 mmHg 49%
    19:00 -8°C° 0 mm 9 m/s 758 mmHg 53%
    20:00 -9°C° 0 mm 10 m/s 758 mmHg 57%
    21:00 -10°C° 0 mm 10 m/s 758 mmHg 61%
    22:00 -10°C° 0 mm 10 m/s 758 mmHg 63%
    23:00 -10°C° 0 mm 10 m/s 757 mmHg 64%

    1 Martie, Joi

    Timp Temperatura Precipitaţii Vânt Presiune Umiditate
    00:00 -10°C° 0 mm 10 m/s 757 mmHg 66%
    01:00 -10°C° 0 mm 10 m/s 756 mmHg 67%
    02:00 -10°C° 0 mm 10 m/s 756 mmHg 68%
    03:00 -10°C° 0 mm 10 m/s 755 mmHg 69%
    04:00 -10°C° 0 mm 10 m/s 755 mmHg 70%
    05:00 -10°C° 0 mm 10 m/s 754 mmHg 70%
    06:00 -11°C° 0 mm 11 m/s 753 mmHg 71%
    07:00 -9°C° 0 mm 11 m/s 753 mmHg 69%
    08:00 -9°C° 0 mm 11 m/s 752 mmHg 68%
    09:00 -8°C° 0 mm 12 m/s 752 mmHg 66%
    10:00 -7°C° 0 mm 12 m/s 751 mmHg 64%
    11:00 -7°C° 0 mm 12 m/s 750 mmHg 62%
    12:00 -6°C° 0 mm 12 m/s 750 mmHg 60%
    13:00 -5°C° 0 mm 12 m/s 749 mmHg 62%
    14:00 -5°C° 0 mm 12 m/s 748 mmHg 64%
    15:00 -5°C° 0 mm 12 m/s 747 mmHg 66%
    16:00 -6°C° 0,2 mm 13 m/s 746 mmHg 71%
    17:00 -6°C° 0,2 mm 13 m/s 745 mmHg 75%
    18:00 -6°C° 0,2 mm 14 m/s 744 mmHg 79%
    19:00 -7°C° 0,9 mm 15 m/s 743 mmHg 82%
    20:00 -7°C° 0,9 mm 15 m/s 742 mmHg 85%
    21:00 -7°C° 0,9 mm 16 m/s 742 mmHg 88%
    22:00 -7°C° 0,8 mm 16 m/s 741 mmHg 88%
    23:00 -5°C° 0,8 mm 16 m/s 740 mmHg 88%
    Arată mai mult